Kremmling, CO (80459)

8:34 AM MST on December 27, 2014 (GMT -0700)
Kremmling | Change Station
CLOSE
Current Station
Airport
Location: Kremmling,
Elevation: 7411 ft
Nearby Weather Stations

Elev 7411 ft 40.05 °N, 106.37 °W | Updated 18 minutes ago

Overcast
Overcast
9 °F
Feels Like 9 °F
N
0
Wind Variable Wind from North

Today
High -- | Low -- °F
--% Chance of Precip.
Yesterday
High -- | Low -- °F
Precip. -- in
7:26 AM 4:47 PM
Waxing Crescent, 37% visible
Pressure 30.18 in
Visibility 10.0 miles
Clouds Overcast 3300 ft
Dew Point 3 °F
Humidity 79%
Rainfall 0.00 in
Snow Depth Not available.
UV 0 out of 12
Pollen .10 out of 12
Air Quality Not available.
Flu Activity Not available.
METAR K20V 271516Z AUTO 00000KT 10SM OVC033 M13/M16 A3018 RMK AO2

More Conditions Fewer Conditions

Pressure 30.18 in
Visibility 10.0 miles
Clouds Overcast 3300 ft
Dew Point 3 °F
Humidity 79%
Rainfall 0.00 in
Snow Depth Not available.
UV 0 out of 12
Pollen .10 out of 12
Air Quality Not available.
Flu Activity Not available.
METAR K20V 271516Z AUTO 00000KT 10SM OVC033 M13/M16 A3018 RMK AO2

More Conditions Fewer Conditions

10-Day Weather Forecast

Almanac

Astronomy

Dec. 27, 2014 Rise Set
Actual Time
Civil Twilight
Nautical Twilight
Astronomical Twilight
Moon
Length of Visible Light
Length of Day
Tomorrow will be .
, % of the Moon is Illuminated

Today's Extremes

State Highs State Lows

Community

WunderPhotos

Upload Photos

1,780,933 photos uploaded!

WunderBlogs® & News

Nearby

Air Quality

  Air Quality AQ Index Pollutant
Not available.

Snow Depth

Station Depth Elevation

Earthquake Activity

City Distance Mag. Time & Date
Minimum magnitude displayed is 2.5.

Coastal Water Temperatures

Place Temperature

Nearby Weather Stations